Hourly Data Report for May 02, 2004

SHERBROOKE A
QUEBEC

45°26'00.000" N
71°41'00.000" W
241.40 m
7028124
71610
YSC

Download Data

Hourly Data (May 2004)
Hourly Data Report for May 2, 2004
TIME
LST
Temp Definition
°C
Dew Point Definition
°C
Rel Hum Definition
%
Precip. Amount Definition
mm

Wind Dir Definition
10's deg

Wind Spd Definition
km/h
Visibility Definition
km
Stn Press Definition
kPa
Hmdx Definition


Wind Chill Definition


Weather Definition


00:00 15.2 14.2 94   19 4 0.2 98.52      
01:00 14.4 13.6 95     0 0.6 98.51      
02:00 14.4 13.5 94   12 6 2.4 98.47      
03:00 13.4 12.5 94   9 4 1.0 98.43      
04:00 13.5 12.6 94   7 4 4.8 98.38      
05:00 12.6 11.9 95   7 4 3.2 98.38      
06:00 14.2 13.4 95     0 4.0 98.42      
07:00 16.9 14.4 85   8 4 19.3 98.40     Cloudy
08:00 19.4 15.2 77   9 6 24.1 98.35     Cloudy
09:00 23.5 15.3 60   18 15 24.1 98.28 28   Cloudy
10:00 23.6 14.5 57   19 20 24.1 98.25 27   Cloudy
11:00 23.2 13.8 55   20 17 19.3 98.22 26   Rain Showers
12:00 26.9 14.3 46   18 19 24.1 98.12 30   Mostly Cloudy
13:00 27.1 14.1 45   20 24 24.1 98.06 31   Mostly Cloudy
14:00 25.1 13.3 48   18 28 15.0 98.00 28    
15:00 25.3 13.1 47   18 22 24.1 97.96 28   Mostly Cloudy
16:00 24.9 13.2 48   18 26 24.1 97.90 28   Mostly Cloudy
17:00 24.3 13.4 51   17 20 15.0 97.80 27    
18:00 23.2 13.7 55   18 17 15.0 97.78 26    
19:00 22.2 14.0 60   19 15 15.0 97.77 26    
20:00 21.2 14.1 64   17 9 15.0 97.79 25    
21:00 21.0 14.2 65   16 19 15.0 97.77      
22:00 20.5 14.4 68   15 15 15.0 97.71      
23:00 19.8 14.3 71   16 11 15.0 97.67      

Notes on Data Quality.

Legend

  • E = Estimated
  • M = Missing
  • NA = Not Available*
  • [empty] = Indicates an unobserved value
Date modified: